User: anonymous   Login
Location: Unspecified
(0.0000°N, 0.0000°E)
Time: 06:43:30
(UTC+00:00)
Language:

NOAA 5 - Orbit

View from above orbital plane
View from above orbital plane
View from above satellite
View from above satellite

Ground track
Ground track

The orbit data is extracted from the following two-line orbital elements,

1  9057U 76077A   18173.89151347 -.00000069 +00000-0 -19184-3 0  9999
2  9057 101.8782 149.5711 0009654 320.5961 053.9438 12.37758099893641
Epoch (UTC): 22 June 2018 21:23:46
Eccentricity: 0.0009654
inclination: 101.8782°
perigee height: 1508 km
apogee height: 1524 km
right ascension of ascending node: 149.5711°
argument of perigee: 320.5961°
revolutions per day: 12.37758099
mean anomaly at epoch: 53.9438°
orbit number at epoch: 89364

The dashed part of the orbit path shows where the satellite is in the earth's shadow,  

DLR